OBJECT D, 59776

Orbit data source: Space-Track

You're viewing an Uncataloged Satellite

Recently launched and/or uncataloged satellites may have evolving metadata. Metadata may include but not limited to: Owner, Maufacturer, Bus, Motor, and Mission.

OBJECT D, 59776 is a satellite owned by Sitronics (CIS) in SSO that was launched on Thu, 16 May 2024 UTC via a SOYUZ-2-1B launch vehicle from the Plesetsk Missile And Space Complex (PKMTR). Unknown objects in Earth's orbit typically refer to objects detected orbiting the Earth but have not yet been identified or cataloged. These objects could be anything from previously untracked satellites, spent rocket stages, debris from satellite collisions, or even natural meteoroids temporarily captured by Earth's gravity.

Loading next visibility...
Identifier
59776, 2024-092D
Orbit
SSO
Country
Flag of CISCIS
Related business
Manufacturer
Sputniks
Mission
Operational spacecraft
Bus & Motor
CUBESAT 3U?, Unknown motor
Mass
3 kg wet, 3 kg dry
Launch date (UTC)
2024-05-16 (1 year ago)
Launch vehicle
SOYUZ-2-1B
Launch site
Plesetsk Missile And Space Complex (PKMTR)
Object type
Unknown
Shape & HBR
Unknown
Radar Cross Section
Small (<0.1 m²)

Expand to show TLE details & history
Last TLE update: 7 hours ago

TLE from 7 hours ago
0 OBJECT D
1 59776U 24092D   25259.60181477  .00015688  00000-0  63302-3 0  9993
2 59776  97.6302  19.3858 0009475  41.4761 318.7193 15.24848270 73884
Epoch: 2025-09-16T14:26Z
TLE epoch observation values (Epoch: 2025-09-16T14:26:36.796Z)
Latitude
-0.00006°
Longitude
166.94272°
Altitude
489.442 km
Speed
7.623 km/s
True Right ascension
01h 17m 32s
True Declination
0° 00' 00"
Sunlit
Object was in full shadow at epoch
Visualization orbit readout
Latitude
Unknown
Longitude
Unknown
Altitude
Unknown
Speed
Unknown
Apparent Right ascension
Unknown
Apparent Declination
Unknown
Sunlit
N/A
Visualization observer readout
Local Sidereal Time
14:02:53
Azimuth
Unknown
Elevation
Unknown
Doppler factor
Unknown
Orbital elements
Apogee altitude
494.716 km
Perigee altitude
481.704 km
Semi-major axis
6,866.347 km
Eccentricity
0.00095
Inclination
97.6302°
RAAN
19.3858°
Arg. of periapsis
41.4761°
True anomaly
318.6476°
Mean anomaly
318.7193°
Eccentric anomaly
318.68346°
Mean motion
3.81465 °/min
Orbital period
94.37 mins
BSTAR
0.00063302
Loading maneuver chart data...
Computing Atmospheric mass density...
Loading historical data...
Loading historical data...
Loading historical data...
Loading historical data...
Loading historical data...
Loading historical data...
Loading historical data...

Documentation

Showing up to 5 results
|